Regional Weather Roundup
Issued by NWS

Home | Current Version | Previous Version | Text Only | Print | Product List | Glossary Off
Versions: 1 2 3 4 5 6 7 8 9 10 11 12 13 14 15 16 17 18 19 20 21 22 23 24 25 26 27 28 29 30 31 32 33 34 35 36 37 38 39 40 41 42 43 44 45 46 47 48 49 50

000
ASUS43 KDTX 290910
RWRMI
MICHIGAN HOURLY REGIONAL WEATHER ROUNDUP
NATIONAL WEATHER SERVICE DETROIT/PONTIAC MI
500 AM EDT FRI JUL 29 2016

NOTE: "FAIR" INDICATES FEW OR NO CLOUDS BELOW 12,000 FEET WITH NO
SIGNIFICANT WEATHER AND/OR OBSTRUCTION TO VISIBILITY.

MIZ047>049-052>055-059>063-066>070-074>076-081>083-291000-
SOUTHEAST LOWER MICHIGAN

CITY           SKY/WX    TMP DP  RH WIND       PRES   REMARKS
ADRIAN         CLOUDY    66  63  90 N5        29.94F
ALMA           CLOUDY    67  65  93 CALM      29.97F
ANN ARBOR      CLEAR     66  59  78 N5        29.93S
BAD AXE        CLOUDY    67  62  84 NE7       29.97S
CARO           CLOUDY    66  62  85 CALM      29.96R
DETROIT CITY   CLOUDY    70  64  81 N5        29.92F
DETROIT        CLOUDY    69  59  70 CALM      29.92F
FLINT          CLOUDY    70  62  76 NE5       29.96S
GROSSE ILE     CLOUDY    71  63  76 CALM      29.91F
HILLSDALE      CLOUDY    65  63  92 CALM      29.94S
HOWELL         CLOUDY    66  62  86 CALM      29.95F

CITY           SKY/WX    TMP DP  RH WIND       PRES   REMARKS
JACKSON        PTCLDY    66  62  87 E3        29.95R
LAMBERTVILLE   CLOUDY    69  61  76 CALM      29.93S
LANSING        CLOUDY    66  61  84 CALM      29.96F
LAPEER         MOCLDY    65  62  90 CALM      29.96R
MASON          CLOUDY    65  62  90 CALM      29.96S
MONROE         CLOUDY    65  62  88 CALM      29.91F
MT. CLEMENS    CLOUDY    68  64  88 N7        29.91R
PONTIAC        CLOUDY    68  62  81 N3        29.94S
PORT HOPE        N/A     70  64  81 NE24      29.96S
PORT HURON     CLOUDY    68  63  83 CALM      29.93S
TRI CITIES     MOCLDY    67  64  90 N8        29.97S
MIDLAND        RAIN      64  59  82 N3        29.97F
TROY           CLOUDY    71  63  75 N5        29.95S
SAGINAW HB     CLOUDY    68  61  77 NE6       29.96S
$$
MIZ043>046-050>051-056>058-064>065-071>073-077>080-291000-
SOUTHWEST LOWER MICHIGAN

CITY           SKY/WX    TMP DP  RH WIND       PRES   REMARKS
BATTLE CREEK   MOCLDY    67  65  93 NE7       29.95R
BENTON HARBOR  CLEAR     67  64  90 E5        29.91F
BIG RAPIDS     CLOUDY    65  64  95 CALM      29.99S
COLDWATER      CLOUDY    68  65  89 CALM      29.93F
FREMONT        RAIN      65  65 100 NE12      29.98F
HOLLAND        CLEAR     67  62  84 E6        29.93F
GRAND RAPIDS   MOCLDY    68  61  78 E7        29.95F
IONIA          CLOUDY    66  59  78 NE9       29.95F
KALAMAZOO      CLOUDY    69  65  86 CALM      29.93F
LUDINGTON      LGT RAIN  64  63  97 NE6       29.98S
MARSHALL       CLOUDY    68  64  87 CALM      29.94S
MOUNT PLEASANT MOCLDY    65  60  84 N6        29.98S
MUSKEGON       HVY RAIN  66  64  93 MISG      29.96S FOG
SOUTH HAVEN    CLOUDY    67  67  97 E5        29.91F
$$
MIZ016>042-291000-
NORTHERN LOWER MICHIGAN

CITY           SKY/WX    TMP DP  RH WIND       PRES   REMARKS
ALPENA         PTCLDY    64  55  72 E7        30.04R
BEAVER ISLAND  PTCLDY    64  59  83 E8        30.04S
BELLAIRE       CLOUDY    62  55  78 CALM      30.03R
CADILLAC       RAIN      61  59  94 NE6       30.02F
CHARLEVOIX     CLOUDY    66  58  76 E9        30.05S
FRANKFORT      RAIN      64  62  91 E6        30.01F
GAYLORD        PTCLDY    61  54  77 NE8       30.04S
GRAYLING       CLOUDY    62  57  83 CALM      30.04S
HARBOR SPRINGS PTCLDY    63  58  85 E8        30.04S
HOUGHTON LAKE  LGT RAIN  62  60  93 CALM      30.04R FOG
MANISTEE       CLOUDY    64  62  93 E7        29.99F
OSCODA         CLOUDY    69  58  68 E12G22    29.99S
PELLSTON       CLOUDY    52  50  93 CALM      30.05S
ROGERS CITY    PTCLDY    65  56  71 E8        30.06R
TRAVERSE CITY  CLOUDY    65  62  90 CALM      30.00F
$$
MIZ007>008-015-291000-
EASTERN UPPER MICHIGAN

CITY           SKY/WX    TMP DP  RH WIND       PRES   REMARKS
KINROSS        PTCLDY    59  53  80 E6        30.06S
MACKINAC ISLAN PTCLDY    64  57  80 E8        30.05S
NEWBERRY       MOCLDY    55  55 100 E5        30.06F
S. S. MARIE    MOCLDY    60  53  77 E3        30.06S
MUNISING         N/A     52  52 100 S5        30.05S
$$
MIZ004>006-011>014-085-291000-
CENTRAL UPPER MICHIGAN

CITY           SKY/WX    TMP DP  RH WIND       PRES   REMARKS
MANISTIQUE     PTCLDY    57  55  94 NE5       30.04S
ESCANABA       PTCLDY    57  54  88 N5        30.03S
MENOMINEE      CLOUDY   N/A N/A N/A NE7       30.03F
$$
MIZ001>003-009>011-084-291000-
WESTERN UPPER MICHIGAN

CITY           SKY/WX    TMP DP  RH WIND       PRES   REMARKS
IRON MOUNTAIN  CLEAR     52  48  86 CALM      30.05F
HOUGHTON       CLEAR     56  49  77 N5        30.09S
COPPER HARBOR    N/A     54  53  97 W6        30.08F
IRONWOOD       PTCLDY    45  43  93 CALM      30.10S
$$

ABBREVIATIONS USED IN REMARKS
   TC - TEMPERATURE IN CELSIUS
  WCI - WIND CHILL INDEX
   HX - HEAT INDEX
  VSB - VISIBILITY




USA.gov is the U.S. government's official web portal to all federal, state and local government web resources and services.